FW3284 Weather Reports


Display with metric or nautical units.
time (UTC)temp
F
wind
direction
speed
MPH
gust
MPH
rain 1hr
in
rain 24hr
in
rain mn
in
humidity
%
barometer
mb
20260905120003 74 108 0.0 2.0 0.00 0.00 0.00 76 1012.9
20260905114540 74 102 0.0 2.0 0.00 0.00 0.00 76 1012.6
20260905113018 75 131 0.0 3.0 0.00 0.00 0.00 73 1012.5
20260905111558 75 122 0.0 2.0 0.00 0.00 0.00 74 1012.5
20260905111505 75 182 0.0 2.0 0.00 0.00 0.00 74 1012.4
20260905110037 74 153 0.0 2.0 0.00 0.00 0.00 74 1012.4
20260905104518 75 153 0.0 1.0 0.00 0.00 0.00 74 1012.5
20260905103058 75 153 0.0 2.0 0.00 0.00 0.00 74 1012.4
20260905103004 75 153 0.0 2.0 0.00 0.00 0.00 73 1012.5
20260905101537 75 153 0.0 1.0 0.00 0.00 0.00 72 1012.4
20260905100031 76 151 0.0 2.0 0.00 0.00 0.00 71 1012.5
20260905094551 77 169 1.0 2.0 0.00 0.00 0.00 69 1012.4
20260905093029 78 174 0.0 2.0 0.00 0.00 0.00 67 1012.2
20260905091511 79 167 0.0 4.0 0.00 0.00 0.00 66 1012.1
20260905090047 79 198 1.0 3.0 0.00 0.00 0.00 65 1012.1
20260905084526 79 256 0.0 4.0 0.00 0.00 0.00 65 1012.1
20260905083008 80 255 2.0 4.0 0.00 0.00 0.00 64 1012.1
20260905081551 79 297 0.0 2.0 0.00 0.00 0.00 64 1012.1
20260905080031 80 186 0.0 2.0 0.00 0.00 0.00 64 1012.1
20260905074522 80 188 0.0 2.0 0.00 0.00 0.00 64 1012.1
20260905073056 80 219 1.0 4.0 0.00 0.00 0.00 63 1012.3
20260905071535 81 214 0.0 5.0 0.00 0.00 0.00 62 1012.3
20260905070012 81 229 0.0 2.0 0.00 0.00 0.00 62 1012.5
20260905064609 82 191 1.0 5.0 0.00 0.00 0.00 61 1012.3
20260905063034 82 212 1.0 4.0 0.00 0.00 0.00 60 1012.3
20260905061510 82 262 0.0 3.0 0.00 0.00 0.00 60 1012.3
20260905060049 82 311 0.0 4.0 0.00 0.00 0.00 60 1012.3
20260905054557 82 233 1.0 4.0 0.00 0.00 0.00 60 1012.3
20260905053011 81 252 0.0 2.0 0.00 0.00 0.00 62 1012.4
20260905051547 81 160 0.0 2.0 0.00 0.00 0.00 61 1012.4
20260905050031 81 244 0.0 2.0 0.00 0.00 0.00 62 1012.3
20260905044511 80 165 0.0 5.0 0.00 0.00 0.00 64 1012.3
20260905043101 78 138 0.0 2.0 0.00 0.00 0.00 69 1012.3
20260905041529 78 129 2.0 3.0 0.00 0.00 0.00 70 1012.3
20260905040011 80 120 1.0 2.0 0.00 0.00 0.00 68 1012.2
20260905034545 80 170 0.0 2.0 0.00 0.00 0.00 68 1012.2
20260905033027 80 135 1.0 2.0 0.00 0.00 0.00 68 1012.3
20260905031507 81 134 0.0 2.0 0.00 0.00 0.00 67 1012.2
20260905030049 81 148 0.0 1.0 0.00 0.00 0.00 67 1012.1
20260905024540 82 148 0.0 2.0 0.00 0.00 0.00 65 1011.9
20260905023015 83 167 1.0 2.0 0.00 0.00 0.00 62 1011.7
20260905021504 85 169 1.0 1.0 0.00 0.00 0.00 59 1011.5
20260905020053 86 179 0.0 2.0 0.00 0.00 0.00 56 1011.2
20260905014531 87 179 0.0 1.0 0.00 0.00 0.00 54 1011.0
20260905013014 88 160 0.0 1.0 0.00 0.00 0.00 53 1010.9
20260905011558 89 245 0.0 1.0 0.00 0.00 0.00 51 1010.7
20260905011505 89 245 0.0 1.0 0.00 0.00 0.00 51 1010.8
20260905010058 89 219 0.0 2.0 0.00 0.00 0.00 50 1010.7
20260905004520 90 272 0.0 2.0 0.00 0.00 0.00 48 1010.7
20260905003005 92 161 0.0 2.0 0.00 0.00 0.00 47 1010.5
20260905001543 93 295 0.0 2.0 0.00 0.00 0.00 46 1010.6
20260905000033 94 304 0.0 2.0 0.00 0.00 0.00 44 1010.6
20260904234513 94 140 0.0 2.0 0.00 0.00 0.00 44 1010.7
20260904233106 95 134 0.0 2.0 0.00 0.00 0.00 43 1010.6
20260904233001 95 176 0.0 2.0 0.00 0.00 0.00 43 1010.6
20260904231542 95 260 1.0 4.0 0.00 0.00 0.00 42 1010.6
20260904230016 96 142 0.0 3.0 0.00 0.00 0.00 42 1010.7
20260904224549 96 233 0.0 5.0 0.00 0.00 0.00 41 1010.7
20260904223022 97 247 1.0 4.0 0.00 0.00 0.00 40 1010.7
20260904221508 99 110 2.0 5.0 0.00 0.00 0.00 38 1010.8
20260904220056 100 96 2.0 5.0 0.00 0.00 0.00 39 1010.9
20260904214533 99 172 0.0 4.0 0.00 0.00 0.00 38 1010.9
20260904213021 99 229 1.0 4.0 0.00 0.00 0.00 39 1011.1
20260904211555 100 189 2.0 7.0 0.00 0.00 0.00 38 1011.2
20260904210039 99 224 2.0 9.0 0.00 0.00 0.00 38 1011.3
20260904204519 98 57 2.0 5.0 0.00 0.00 0.00 38 1011.7
20260904203058 98 172 1.0 5.0 0.00 0.00 0.00 39 1011.7
20260904201533 96 117 4.0 8.0 0.00 0.00 0.00 41 1011.8
20260904200017 97 155 0.0 8.0 0.00 0.00 0.00 41 1012.1
20260904194556 98 188 4.0 8.0 0.00 0.00 0.00 41 1012.3
20260904194505 98 141 4.0 8.0 0.00 0.00 0.00 41 1012.3
20260904193038 98 226 2.0 6.0 0.00 0.00 0.00 40 1012.3
20260904191523 96 248 1.0 8.0 0.00 0.00 0.00 44 1012.6
20260904190004 97 79 1.0 6.0 0.00 0.00 0.00 42 1012.8
20260904184545 97 185 2.0 7.0 0.00 0.00 0.00 44 1012.9
20260904183023 97 15 1.0 5.0 0.00 0.00 0.00 43 1013.1
20260904181509 96 302 2.0 8.0 0.00 0.00 0.00 44 1013.4
20260904180048 95 113 1.0 7.0 0.00 0.00 0.00 45 1013.5
20260904174527 94 150 3.0 9.0 0.00 0.00 0.00 45 1013.7
20260904173105 95 181 2.0 6.0 0.00 0.00 0.00 46 1013.9
20260904171541 94 150 2.0 6.0 0.00 0.00 0.00 46 1014.1
20260904170019 93 213 3.0 7.0 0.00 0.00 0.00 46 1014.1
20260904164600 93 257 3.0 7.0 0.00 0.00 0.00 48 1014.2
20260904164500 93 252 3.0 7.0 0.00 0.00 0.00 48 1014.2
20260904163041 91 286 2.0 7.0 0.00 0.00 0.00 49 1014.2
20260904161518 91 258 3.0 8.0 0.00 0.00 0.00 51 1014.3
20260904160057 90 253 3.0 9.0 0.00 0.00 0.00 51 1014.3
20260904154539 90 135 1.0 5.0 0.00 0.00 0.00 52 1014.3
20260904153019 89 205 2.0 11.0 0.00 0.00 0.00 53 1014.4
20260904151557 88 230 2.0 10.0 0.00 0.00 0.00 55 1014.3
20260904150037 88 269 0.0 8.0 0.00 0.00 0.00 58 1014.3
20260904144519 86 267 3.0 8.0 0.00 0.00 0.00 60 1014.3
20260904143053 85 266 3.0 7.0 0.00 0.00 0.00 63 1014.1
20260904141525 85 233 3.0 7.0 0.00 0.00 0.00 64 1014.1
20260904140106 84 258 2.0 5.0 0.00 0.00 0.00 65 1014.3
20260904140001 84 241 2.0 5.0 0.00 0.00 0.00 65 1014.2
20260904134554 83 258 1.0 9.0 0.00 0.00 0.00 68 1014.3
20260904133019 83 247 1.0 3.0 0.00 0.00 0.00 68 1014.3
20260904131553 81 106 0.0 1.0 0.00 0.00 0.00 72 1014.2
20260904130040 80 207 0.0 2.0 0.00 0.00 0.00 73 1014.1
20260904124517 79 182 0.0 2.0 0.00 0.00 0.00 74 1013.9
20260904123058 77 182 0.0 2.0 0.00 0.00 0.00 77 1014.0
20260904121529 75 251 0.0 2.0 0.00 0.00 0.00 80 1013.9